sat.trackr.live / text

‹ back to catalog

STARLINK-30423

NORAD 57843 · 2023-141D

PAYLOAD ACTIVE UNKNOWN

§ Identity

Operator
Country
US
Launch date
2023-09-12
Launch site
AFWTR
Launch vehicle
Mass (kg)
RCS (m²)

Purposes: comms

External: N2YO · Heavens-Above · Gunter

§ Orbital elements

Epoch: 2026-05-24T19:37:28.907616Z

Period
94.01 min
Inclination
53.1613°
Eccentricity
0.0001158
Mean motion
15.31700391 rev/d
Perigee alt
469.9 km
Apogee alt
471.5 km
Semi-major
6,848.9 km
B*
2.2448e-5
RAAN
290.3017°
Arg perigee
84.2575°
Mean anomaly
275.8558°
Rev number
15,198

§ Raw data

STARLINK-304231 57843U 23141D   26144.81769569  .00000332  00000+0  22448-4 0  99972 57843  53.1613 290.3017 0001158  84.2575 275.8558 15.31700391151980

JSON: /api/v1/satellites/57843 · /tle

For live sub-satellite position, see the globe view (requires WebGL).

§ Visibility from observer

Set your observer location to see the next 7 days of passes ≥ 10°. The values pass through the URL so the page stays shareable.

No JS? Fill the form by hand. The geolocation button needs JavaScript.